Location: Zilina
(0.0000°N, 18.7333°E)
Time: 19:27:03
(UTC+01:00)

Ariane H10 - Pass Details

Date: 19 February 2019
Orbit: 413 x 34725 km, 3.8° (Epoch: 21 March)

Event Time Altitude Azimuth Distance (km) Brightness Sun altitude
Rises 19:59:03 0° 267° (W) 13,511 10.5 -29.4°
Reaches altitude 10° 20:16:13 10° 265° (W) 7,537 8.9 -33.6°
Enters shadow 20:30:36 57° 234° (SW) 1,320 4.2 -37.1°
